Location: Unspecified
(36.2561°N, 0.0000°E)
Time: 04:02:13
(UTC+00:00)

SL-14 DEB - Visible Passes

Search period start: 04 April 2026 00:00
Search period end: 14 April 2026 00:00
Orbit: 917 x 943 km, 82.5° (Epoch: 26 March)

Date Brightness Start Highest point End Pass type
(mag) Time Alt. Az. Time Alt. Az. Time Alt. Az.
4 Apr ? 20:18:01 10° WNW 20:19:55 12° W 20:21:49 10° W visible
5 Apr ? 18:41:59 10° NNW 18:47:57 71° W 18:53:54 10° S visible
6 Apr ? 18:53:48 10° NNW 18:59:30 48° W 19:05:13 10° SSW visible
7 Apr ? 19:05:46 10° NNW 19:11:00 33° W 19:16:15 10° SSW visible
8 Apr ? 19:17:58 10° NW 19:22:27 22° W 19:26:57 10° SW visible
9 Apr ? 19:30:38 10° NW 19:33:51 15° W 19:37:04 10° WSW visible
